sat.trackr.live / text

‹ back to catalog

STARLINK-34417

NORAD 64617 · 2025-137Z

PAYLOAD ACTIVE UNKNOWN

§ Identity

Operator
Country
US
Launch date
2025-06-25
Launch site
AFETR
Launch vehicle
Mass (kg)
RCS (m²)

Purposes: comms

External: N2YO · Heavens-Above · Gunter

§ Orbital elements

Epoch: 2026-09-20T01:30:22.361184Z

Period
93.85 min
Inclination
53.1574°
Eccentricity
0.0000929
Mean motion
15.34409357 rev/d
Perigee alt
462.0 km
Apogee alt
463.3 km
Semi-major
6,840.8 km
B*
7.4929e-4
RAAN
135.8903°
Arg perigee
65.6644°
Mean anomaly
294.4456°
Rev number
7,082

§ Raw data

STARLINK-344171 64617U 25137Z   26263.06275881  .00025032  00000+0  74929-3 0  99932 64617  53.1574 135.8903 0000929  65.6644 294.4456 15.34409357 70823

JSON: /api/v1/satellites/64617 · /tle

For live sub-satellite position, see the globe view (requires WebGL).

§ Visibility from observer

Set your observer location to see the next 7 days of passes ≥ 10°. The values pass through the URL so the page stays shareable.

No JS? Fill the form by hand. The geolocation button needs JavaScript.